TimeEDT,TemperatureF,Dew PointF,Humidity,Sea Level PressureIn,VisibilityMPH,Wind Direction,Wind SpeedMPH,Gust SpeedMPH,PrecipitationIn,Events,Conditions,WindDirDegrees,DateUTC
12:15 AM,41.4,40.3,96,29.86,10.0,Calm,Calm,-,0.01,Rain,Rain,0,2013-03-19 04:15:00
12:35 AM,42.1,41.0,96,29.87,10.0,Calm,Calm,-,0.01,,Overcast,0,2013-03-19 04:35:00
12:55 AM,42.4,41.4,96,29.85,10.0,Calm,Calm,-,0.01,Rain,Light Rain,0,2013-03-19 04:55:00
1:15 AM,42.1,41.0,96,29.85,10.0,Calm,Calm,-,N/A,,Scattered Clouds,0,2013-03-19 05:15:00
1:35 AM,42.3,41.2,96,29.86,10.0,NW,3.5,-,N/A,,Mostly Cloudy,310,2013-03-19 05:35:00
2:15 AM,43.0,42.1,97,29.86,5.0,North,6.9,-,N/A,,Overcast,350,2013-03-19 06:15:00
2:35 AM,43.2,42.1,96,29.85,10.0,North,4.6,-,N/A,,Overcast,360,2013-03-19 06:35:00
2:55 AM,43.2,42.1,96,29.85,10.0,Calm,Calm,-,N/A,,Overcast,0,2013-03-19 06:55:00
3:15 AM,43.0,41.9,96,29.83,10.0,Calm,Calm,-,N/A,,Overcast,0,2013-03-19 07:15:00
3:35 AM,43.2,42.1,96,29.84,10.0,Calm,Calm,-,N/A,,Overcast,0,2013-03-19 07:35:00
3:55 AM,43.0,41.9,96,29.83,10.0,NW,4.6,-,N/A,,Overcast,310,2013-03-19 07:55:00
4:15 AM,42.8,41.9,97,29.83,10.0,Calm,Calm,-,N/A,,Overcast,0,2013-03-19 08:15:00
4:35 AM,42.8,41.9,97,29.82,7.0,Calm,Calm,-,N/A,,Overcast,0,2013-03-19 08:35:00
4:55 AM,43.0,41.9,96,29.83,5.0,West,3.5,-,N/A,,Overcast,280,2013-03-19 08:55:00
5:15 AM,42.8,41.9,97,29.84,5.0,Calm,Calm,-,N/A,,Overcast,0,2013-03-19 09:15:00
5:35 AM,42.8,41.7,96,29.84,2.5,NW,3.5,-,N/A,,Overcast,320,2013-03-19 09:35:00
6:15 AM,43.0,42.1,97,29.84,3.0,Calm,Calm,-,N/A,,Overcast,0,2013-03-19 10:15:00
6:35 AM,43.0,42.1,97,29.85,4.0,Calm,Calm,-,N/A,,Overcast,0,2013-03-19 10:35:00
6:55 AM,43.0,42.1,97,29.84,2.5,Calm,Calm,-,N/A,,Overcast,0,2013-03-19 10:55:00
7:15 AM,43.0,42.1,97,29.84,2.5,Calm,Calm,-,N/A,,Overcast,0,2013-03-19 11:15:00
7:35 AM,43.0,42.1,97,29.83,2.0,Calm,Calm,-,N/A,,Overcast,0,2013-03-19 11:35:00
7:55 AM,43.2,42.3,97,29.84,1.0,SSW,3.5,-,N/A,,Overcast,210,2013-03-19 11:55:00
8:15 AM,43.5,42.8,97,29.86,1.5,WSW,3.5,-,N/A,,Overcast,250,2013-03-19 12:15:00
8:35 AM,43.7,43.0,97,29.87,2.5,WSW,5.8,-,N/A,,Overcast,240,2013-03-19 12:35:00
9:15 AM,44.6,43.3,95,29.89,4.0,West,6.9,-,N/A,,Overcast,260,2013-03-19 13:15:00
10:15 AM,45.9,43.9,93,29.91,5.0,WSW,5.8,-,N/A,,Overcast,250,2013-03-19 14:15:00
10:35 AM,47.7,45.0,90,29.91,10.0,WSW,6.9,-,N/A,,Mostly Cloudy,250,2013-03-19 14:35:00
10:55 AM,48.9,45.1,87,29.91,10.0,West,5.8,-,N/A,,Scattered Clouds,270,2013-03-19 14:55:00
11:15 AM,51.1,46.0,83,29.91,10.0,West,6.9,-,N/A,,Scattered Clouds,270,2013-03-19 15:15:00
12:15 PM,58.1,42.6,56,29.90,10.0,West,10.4,-,N/A,,Clear,260,2013-03-19 16:15:00
12:35 PM,59.4,40.1,49,29.89,10.0,West,6.9,-,N/A,,Clear,270,2013-03-19 16:35:00
12:55 PM,60.8,37.2,42,29.89,10.0,West,10.4,-,N/A,,Clear,270,2013-03-19 16:55:00
1:15 PM,61.0,32.7,35,29.89,10.0,WNW,9.2,17.3,N/A,,Clear,290,2013-03-19 17:15:00
1:35 PM,61.7,34.0,35,29.89,10.0,West,11.5,17.3,N/A,,Clear,260,2013-03-19 17:35:00
2:15 PM,62.6,32.2,32,29.88,10.0,West,15.0,19.6,N/A,,Clear,270,2013-03-19 18:15:00
2:35 PM,63.5,32.5,31,29.88,10.0,West,10.4,19.6,N/A,,Clear,280,2013-03-19 18:35:00
2:55 PM,64.9,33.6,31,29.87,10.0,WSW,11.5,-,N/A,,Clear,250,2013-03-19 18:55:00
3:15 PM,65.3,31.5,28,29.87,10.0,West,12.7,18.4,N/A,,Clear,260,2013-03-19 19:15:00
3:35 PM,65.7,29.8,26,29.86,10.0,West,9.2,17.3,N/A,,Clear,270,2013-03-19 19:35:00
3:55 PM,66.6,28.0,24,29.86,10.0,West,10.4,17.3,N/A,,Clear,260,2013-03-19 19:55:00
4:15 PM,67.8,25.2,20,29.87,10.0,WNW,13.8,18.4,N/A,,Clear,290,2013-03-19 20:15:00
4:35 PM,67.5,23.5,19,29.87,10.0,West,12.7,23.0,N/A,,Clear,280,2013-03-19 20:35:00
5:15 PM,67.3,21.4,17,29.88,10.0,West,12.7,24.2,N/A,,Clear,280,2013-03-19 21:15:00
5:35 PM,67.1,21.4,18,29.88,10.0,NW,10.4,19.6,N/A,,Clear,310,2013-03-19 21:35:00
5:55 PM,66.7,22.3,18,29.88,10.0,WNW,12.7,17.3,N/A,,Clear,300,2013-03-19 21:55:00
6:35 PM,65.3,15.8,15,29.90,10.0,West,15.0,25.3,N/A,,Clear,270,2013-03-19 22:35:00
6:55 PM,64.6,16.2,15,29.91,10.0,WNW,12.7,21.9,N/A,,Clear,290,2013-03-19 22:55:00
7:15 PM,63.5,15.8,16,29.92,10.0,WNW,11.5,19.6,N/A,,Clear,290,2013-03-19 23:15:00
7:35 PM,61.9,15.8,17,29.93,10.0,WNW,8.1,-,N/A,,Clear,300,2013-03-19 23:35:00
7:55 PM,61.2,15.8,17,29.93,10.0,WNW,6.9,-,N/A,,Clear,290,2013-03-19 23:55:00
8:15 PM,60.1,15.8,18,29.94,10.0,WNW,6.9,-,N/A,,Clear,290,2013-03-20 00:15:00
8:35 PM,59.9,15.8,18,29.95,10.0,West,5.8,-,N/A,,Clear,280,2013-03-20 00:35:00
8:55 PM,58.6,16.7,19,29.96,10.0,West,4.6,-,N/A,,Clear,280,2013-03-20 00:55:00
9:15 PM,57.6,18.0,21,29.97,10.0,WNW,6.9,-,N/A,,Clear,290,2013-03-20 01:15:00
9:35 PM,56.5,18.7,23,29.99,10.0,West,4.6,-,N/A,,Clear,280,2013-03-20 01:35:00
9:55 PM,56.7,19.2,23,29.99,10.0,WNW,8.1,-,N/A,,Clear,290,2013-03-20 01:55:00
10:15 PM,56.3,19.8,24,30.00,10.0,WNW,6.9,-,N/A,,Clear,300,2013-03-20 02:15:00
10:35 PM,55.4,20.1,25,30.00,10.0,NW,6.9,-,N/A,,Clear,310,2013-03-20 02:35:00
11:15 PM,53.1,20.3,28,30.01,10.0,NNW,6.9,-,N/A,,Clear,340,2013-03-20 03:15:00
11:35 PM,52.3,19.2,27,30.01,10.0,NNW,6.9,-,N/A,,Clear,330,2013-03-20 03:35:00
11:55 PM,52.2,16.7,25,30.01,10.0,NW,5.8,-,N/A,,Clear,320,2013-03-20 03:55:00